カタログに戻る

ATLAS 5 CENTAUR DEB

運用中HEO
NORAD 43951·DEBRIS·🇺🇸 United States

打ち上げ Sep 17, 2014 から Cape Canaveral Space Force Station

Loading…

次のパス (今後24時間)

TLE

最新Source: Space-Track

元期: Sep 13, 2026, 19:42 UTC

1 43951U 14055E   26256.82114476 -.00000131  00000-0  00000-0 0  9997
2 43951  20.7096 114.9915 4848746 219.0563  93.3812  1.89436050 55579

AllMySatでATLAS 5 CENTAUR DEBをリアルタイム追跡

Download on the App Store